Home   Weather   Hartberg   Past weeks

Flag for Austria Past Weather in Hartberg, Styria, Austria — Yesterday and Last 2 Weeks

Now
19 °F

Light freezing rain. Passing clouds.


Feels Like: 14 °F
Forecast: 13 / 29 °F
Wind: 3 mph from West

Location: Graz-Thalerhof-Flughafen

Current Time: Jan 24, 2017 at 10:51:09 pm

Latest Report: Jan 24, 2017 at 10:20 pm


Visibility: 2 mi

Pressure: 30.33 "Hg

Humidity: 86%

Dew Point: 16 °F

Location of HartbergLocation

Past Weather in Hartberg — Graph

°F

Hartberg Temperature Yesterday

Maximum temperature yesterday: 21 °F (at 12:50 pm)
Minimum temperature yesterday: 12 °F (at 1:50 am)
Average temperature yesterday: 15 °F

High & Low Weather Summary for the Past Weeks

 TemperatureHumidityPressure
High36 °F (Jan 13, 9:20 am)100% (Jan 13, 11:20 am)30.60 "Hg (Jan 13, 11:20 am)
Low1 °F (Jan 11, 3:50 am)51% (Jan 19, 12:20 pm)29.47 "Hg (Jan 13, 4:50 am)
Average21 °F84%30.18 "Hg
* Reported Jan 9 9:20 pm — Jan 24 9:20 pm, Hartberg, Weather by CustomWeather, © 2017

Note: Actual official high and low records may vary slightly from our data, if they occured in-between our weather recording intervals... More about our weather records

Advertising

Hartberg Weather History for the Previous 24 Hours

Scroll right to see more
 ConditionsComfort  
Time TempWeatherWind HumidityBarometerVisibility
9:20 pm
Tue, Jan 24
19 °FLight freezing rain. Low clouds.5 mph86%30.33 "Hg2 mi
8:50 pm19 °FLight mixture of precip. Low clouds.5 mph86%30.33 "Hg2 mi
8:20 pm19 °FLight freezing rain. Passing clouds.5 mph86%30.33 "Hg2 mi
7:50 pm19 °FLight freezing rain. Passing clouds.2 mph86%30.33 "Hg2 mi
7:20 pm18 °FMixture of precip. Passing clouds.1 mph93%30.30 "Hg2 mi
6:50 pm18 °FLight mixture of precip. Passing clouds.2 mph93%30.30 "Hg2 mi
6:20 pm18 °FLight freezing rain. Passing clouds.1 mph93%30.30 "Hg2 mi
5:50 pm18 °FLight freezing rain. Partly cloudy.2 mph93%30.30 "Hg2 mi
5:20 pm18 °FLight freezing rain. Partly cloudy.3 mph93%30.30 "Hg2 mi
4:20 pm18 °FLight freezing rain. Broken clouds.5 mph93%30.27 "Hg2 mi
3:50 pm18 °FLight freezing rain. Broken clouds.2 mph93%30.27 "Hg2 mi
3:20 pm18 °FLight freezing rain. Broken clouds.3 mph93%30.27 "Hg2 mi
2:50 pm18 °FLight freezing rain. Broken clouds.3 mph93%30.24 "Hg1 mi
2:20 pm18 °FLight freezing rain. Broken clouds.3 mph93%30.24 "Hg1 mi
1:50 pm18 °FLight freezing rain. Broken clouds.2 mph93%30.24 "Hg1 mi
1:20 pm18 °FLight freezing rain. Broken clouds.3 mph93%30.24 "Hg1 mi
12:50 pm18 °FLight freezing rain. Broken clouds.2 mph93%30.24 "Hg1 mi
12:20 pm18 °FLight freezing rain. Broken clouds.1 mph93%30.27 "Hg1 mi
11:50 am18 °FLight freezing rain. Broken clouds.2 mph86%30.27 "Hg1 mi
11:20 am18 °FLight freezing rain. Broken clouds.1 mph93%30.27 "Hg1 mi
10:50 am18 °FLight freezing rain. Broken clouds.3 mph86%30.27 "Hg1 mi
10:20 am16 °FLight freezing rain. Broken clouds.3 mph93%30.27 "Hg1 mi
9:50 am16 °FLight freezing rain. Broken clouds.3 mph93%30.27 "Hg1 mi
9:20 am18 °FLight freezing rain. Broken clouds.5 mph86%30.24 "Hg1 mi
8:50 am16 °FLight freezing rain. Broken clouds.5 mph93%30.24 "Hg1 mi
8:20 am16 °FLight freezing rain. Broken clouds.1 mph93%30.24 "Hg1 mi
7:50 am16 °FLight freezing rain. Partly sunny.3 mph93%30.24 "Hg1 mi
7:20 am16 °FLight freezing rain. Passing clouds.5 mph93%30.21 "Hg1 mi
6:50 am16 °FLight freezing rain. Passing clouds.2 mph93%30.21 "Hg1 mi
6:20 am16 °FLight freezing rain. Passing clouds.2 mph93%30.21 "Hg1 mi
5:50 am16 °FLight freezing rain. Passing clouds.1 mph93%30.21 "Hg2 mi
5:20 am16 °FLight freezing rain. Passing clouds.2 mph93%30.21 "Hg2 mi
4:50 am16 °FLight freezing rain. Partly cloudy.1 mph93%30.21 "Hg2 mi
4:20 am16 °FLight mixture of precip. Partly cloudy.2 mph93%30.21 "Hg2 mi
3:50 am16 °FSnow. Overcast.1 mph93%30.21 "Hg1 mi
3:20 am16 °FPassing clouds.3 mph93%30.21 "Hg1 mi
2:50 am16 °FIce fog.1 mph93%30.21 "Hg1 mi
2:20 am16 °FIce fog.2 mph93%30.21 "Hg1 mi
1:50 am16 °FLow clouds.2 mph93%30.21 "Hg1 mi
1:20 am14 °FPassing clouds.2 mph100%30.21 "Hg1 mi
12:50 am16 °FLow clouds.1 mph93%30.21 "Hg1 mi
12:20 am16 °FPassing clouds.2 mph93%30.21 "Hg1 mi
11:50 pm
Mon, Jan 23
16 °FIce fog.2 mph93%30.21 "Hg1 mi
11:20 pm16 °FPartly cloudy.1 mph93%30.24 "Hg1 mi
10:50 pm14 °FSnow. Overcast.2 mph92%30.24 "Hg1 mi
10:20 pm14 °FLight freezing rain. Passing clouds.2 mph92%30.24 "Hg1 mi
Weather by CustomWeather, © 2017

See weather overviewHow to use our weather pages